[[{"header":{"parameterUnit":"m.s-1","parameterCategory":1,"la1":30.2991,"la2":30.254,"lo1":-89.0895,"lo2":-89.0444,"dy":0.0017,"dx":0.0017,"nx":28,"ny":28,"refTime":"2023-10-27T09:00:00:Z","depth":0,"parameterNumber":2,"parameterNumberName":"U-component_of_WINDS"},"data":[0,0,0,0,0,0,0,0,0,0,0,0,0,0,0,0,0,0,0,0,0,0,0,0,0,0,0,0,0,0,0,0,0,0,0,0,0,0,0,0,0,0,0,0,0,0,0,0,0,0,0,0,0,0,0,0,0,0,-3.1109,-3.111,0,-3.1191,-3.1192,-3.1193,-3.1137,-3.1135,-3.1132,-3.113,-3.1211,-3.1216,-3.122,0,0,0,0,0,0,0,0,0,0,0,0,0,-3.0904,-3.0908,-3.1109,-3.111,-3.1111,-3.1191,-3.1192,-3.1193,-3.1138,-3.1135,-3.1131,-3.1129,-3.121,-3.1215,-3.1221,0,0,0,0,0,0,0,0,0,0,0,0,0,-3.099,-3.0909,-3.1109,-3.1093,-3.1093,-3.119,-3.1192,-3.1193,-3.1138,-3.1134,-3.1131,-3.1127,-3.1208,-3.1215,-3.1221,-3.1338,0,0,-3.1242,-3.1245,0,0,0,0,0,0,0,0,-3.0985,-3.0998,-3.1094,-3.1094,-3.1094,-3.115,-3.1149,-3.1242,-3.1139,-3.1121,-3.113,-3.1125,-3.1194,-3.1201,-3.1225,-3.1342,-3.1346,-3.1243,-3.1247,-3.125,-3.1252,0,0,0,0,0,0,0,-3.0979,-3.0994,-3.1141,-3.1096,-3.1096,-3.1082,-3.109,-3.1167,-3.1177,-3.1122,-3.1118,-3.1129,-3.1193,-3.1219,-3.1227,-3.1347,-3.1242,-3.1248,-3.1253,-3.1255,-3.1564,-3.1568,0,0,0,0,0,0,-3.0975,-3.0989,-3.1139,-3.1144,-3.1029,-3.1088,-3.1097,-3.1136,-3.1176,-3.1179,-3.1132,-3.1126,-3.1209,-3.1219,-3.1229,-3.1369,-3.125,-3.1256,-3.126,-3.156,-3.1565,-3.157,0,0,0,0,0,0,-3.0971,-3.0989,-3.1135,-3.1066,-3.1083,-3.1096,-3.1139,-3.1139,-3.1165,-3.1184,-3.1185,-3.1156,-3.1206,-3.122,-3.1312,-3.1371,-3.1259,-3.1265,-3.1555,-3.1562,-3.1568,-3.1649,0,0,0,0,0,0,-3.0965,-3.0988,-3.1033,-3.1067,-3.1087,-3.1217,-3.1143,-3.1144,-3.1177,-3.117,-3.1207,-3.121,-3.1204,-3.1302,-3.1319,-3.1378,-3.127,-3.155,-3.1558,-3.1566,-3.1641,-3.1657,-3.1671,0,0,0,0,0,-3.0958,-3.1052,-3.1035,-3.1053,-3.1144,-3.1221,-3.1232,-3.1225,-3.1182,-3.1227,-3.1239,-3.1208,-3.1362,-3.1312,-3.133,-3.1393,-3.1546,-3.1556,-3.1565,-3.1635,-3.1654,-3.1671,0,0,0,0,0,0,-3.1023,-3.1056,-3.1038,-3.1146,-3.1181,-3.1211,-3.1268,-3.1246,-3.1294,-3.1285,-3.1273,-3.1282,-3.1379,-3.1395,-3.1339,-3.1508,-3.1447,-3.1461,-3.1494,-3.1513,-3.1528,-3.1521,-3.1276,0,0,0,0,0,-3.105,-3.1111,-3.1136,-3.1229,-3.1247,-3.1255,-3.1288,-3.128,-3.1316,-3.133,-3.1349,-3.1384,-3.144,-3.1478,-3.153,-3.1644,-3.1651,-3.1696,-3.1711,-3.1723,-3.1734,-3.1796,-3.1816,-3.1601,-3.1601,-3.16,0,0,-3.1106,-3.1132,-3.117,-3.1242,-3.1269,-3.1331,-3.1268,-3.1336,-3.1383,-3.134,-3.1428,-3.1444,-3.1483,-3.1586,-3.1632,-3.1602,-3.1796,-3.1735,-3.1745,-3.1749,-3.1807,-3.1828,-3.1846,-3.1607,-3.1606,-3.1605,0,0,-3.124,-3.1266,-3.1346,-3.1374,-3.1415,-3.142,-3.1439,-3.1473,-3.1482,-3.1571,-3.154,-3.1595,-3.1692,-3.1721,-3.1749,-3.1895,-3.1868,-3.1913,-3.1991,-3.205,-3.2067,-3.2082,-3.2134,-3.2153,-3.1924,-3.1924,-3.1925,0,-3.1305,-3.1398,-3.139,-3.1461,-3.1494,-3.1459,-3.154,-3.1567,-3.1624,-3.1647,-3.1613,-3.1734,-3.1758,-3.1867,-3.1903,-3.1927,-3.1948,-3.1908,-3.2066,-3.2081,-3.2094,-3.2144,-3.2163,-3.193,-3.1929,-3.1928,-3.1928,0,-3.1475,-3.1541,-3.16,-3.1656,-3.1695,-3.1771,-3.1774,-3.1815,-3.1803,-3.1811,-3.1902,-3.193,-3.1987,-3.2013,-3.2002,-3.2122,-3.2102,-3.2067,-3.2006,-3.212,-3.2166,-3.2185,-3.1937,-3.1935,-3.1933,-3.1932,0,0,-3.1651,-3.1702,-3.1724,-3.1749,-3.1793,-3.1843,-3.1917,-3.1975,-3.201,-3.205,-3.2112,-3.2195,-3.2164,-3.2195,-3.2187,-3.224,-3.2354,-3.2199,-3.22,-3.2226,-3.2487,-3.2512,-3.2535,-3.2337,-3.2341,-3.2344,-3.2484,0,-3.1787,-3.1917,-3.1912,-3.2034,-3.2094,-3.2063,-3.2127,-3.2161,-3.2171,-3.2223,-3.2234,-3.2293,-3.2247,-3.2266,-3.2317,-3.233,-3.2406,-3.2319,-3.2394,-3.2397,-3.2384,-3.2559,-3.2586,-3.2716,-3.2502,-3.2505,-3.2507,0,-3.1963,-3.201,-3.2138,-3.2173,-3.2198,-3.2256,-3.2309,-3.2359,-3.2397,-3.24,-3.2436,-3.242,-3.2495,-3.2432,-3.2535,-3.2476,-3.2507,-3.2518,-3.2523,-3.2528,-3.2458,-3.2569,-3.2758,-3.2777,-3.2535,-3.2533,-3.2531,0,-3.2078,-3.2174,-3.2262,-3.2285,-3.2328,-3.237,-3.2389,-3.2423,-3.2458,-3.2504,-3.2527,-3.2581,-3.261,-3.2652,-3.2651,-3.2605,-3.2755,-3.2692,-3.2759,-3.276,-3.2791,-3.2789,-3.2988,-3.2813,-3.2812,-3.2812,-3.2811,0,-3.223,-3.231,-3.2315,-3.2369,-3.2457,-3.2451,-3.2538,-3.2553,-3.2584,-3.264,-3.2617,-3.267,-3.2666,-3.272,-3.272,-3.2805,-3.2818,-3.2823,-3.2822,-3.2825,-3.2824,-3.2844,-3.2834,-3.2817,-3.2816,-3.2815,-3.2814,0,-3.2373,-3.238,-3.2475,-3.2508,-3.2519,-3.2582,-3.261,-3.2662,-3.267,-3.2742,-3.2759,-3.2771,-3.2834,-3.2837,-3.2909,-3.2909,-3.3013,-3.3002,-3.3,-3.2998,-3.3065,-3.3058,-3.3282,-3.3311,-3.3118,-3.3119,-3.3121,0,-3.247,-3.253,-3.257,-3.2607,-3.263,-3.2689,-3.2725,-3.2721,-3.2759,-3.2807,-3.2853,-3.2914,-3.2962,-3.3063,-3.3078,-3.3133,-3.3123,-3.3198,-3.3131,-3.3133,-3.3124,-3.312,-3.3126,-3.3211,-3.3213,-3.3214,-3.3216,0,-3.264,-3.264,-3.2693,-3.2748,-3.2792,-3.2835,-3.2874,-3.2905,-3.2906,-3.2951,-3.3015,-3.3052,-3.3126,-3.3187,-3.324,-3.326,-3.3239,-3.3237,-3.3255,-3.3259,-3.3255,-3.3258,-3.3035,-3.3232,-3.323,-3.3229,-3.3228,-3.3227,-3.2762,-3.2814,-3.2851,-3.2911,-3.2941,-3.2979,-3.3029,-3.3044,-3.3098,-3.3158,-3.3153,-3.3224,-3.326,-3.333,-3.3354,-3.341,-3.3384,-3.3411,-3.3417,-3.3424,-3.3431,-3.3247,-3.3419,-3.3419,-3.3419,-3.3418,-3.3418,0,-3.2931,-3.2953,-3.3009,-3.3065,-3.3112,-3.3089,-3.3132,-3.3173,-3.3236,-3.3272,-3.332,-3.3394,-3.3452,-3.3473,-3.353,-3.357,-3.3562,-3.3585,-3.3582,-3.3587,-3.3451,-3.3429,-3.3591,-3.3591,-3.3591,-3.3591,-3.3591,-3.3591,-3.3024,-3.3111,-3.3116,-3.3218,-3.324,-3.331,-3.3336,-3.3371,-3.34,-3.3483,-3.3532,-3.3545,-3.3575,-3.3634,-3.3687,-3.3691,-3.3713,-3.3741,-3.3741,-3.3614,-3.3596,-3.358,-3.3559,-3.3746,-3.3746,-3.3873,-3.3874,-3.3875]},{"header":{"parameterUnit":"m.s-1","parameterCategory":1,"la1":30.2991,"la2":30.254,"lo1":-89.0895,"lo2":-89.0444,"dy":0.0017,"dx":0.0017,"nx":28,"ny":28,"refTime":"2023-10-27T09:00:00:Z","depth":0,"parameterNumber":3,"parameterNumberName":"V-component_of_WINDS"},"data":[0,0,0,0,0,0,0,0,0,0,0,0,0,0,0,0,0,0,0,0,0,0,0,0,0,0,0,0,0,0,0,0,0,0,0,0,0,0,0,0,0,0,0,0,0,0,0,0,0,0,0,0,0,0,0,0,0,0,1.8176,1.8177,0,1.8234,1.8235,1.8235,1.8223,1.8222,1.8221,1.822,1.8275,1.8277,1.828,0,0,0,0,0,0,0,0,0,0,0,0,0,1.8051,1.8053,1.8176,1.8177,1.8178,1.8234,1.8235,1.8235,1.8223,1.8222,1.8221,1.8219,1.8274,1.8277,1.828,0,0,0,0,0,0,0,0,0,0,0,0,0,1.8107,1.8054,1.8176,1.8178,1.8179,1.8234,1.8235,1.8236,1.8223,1.8222,1.822,1.8219,1.8273,1.8277,1.828,1.8335,0,0,1.8291,1.8293,0,0,0,0,0,0,0,0,1.8103,1.8111,1.8177,1.8178,1.8179,1.822,1.8211,1.8269,1.8224,1.8206,1.822,1.8218,1.8257,1.8262,1.8276,1.8337,1.834,1.8292,1.8294,1.8296,1.8297,0,0,0,0,0,0,0,1.81,1.8109,1.8199,1.8178,1.8179,1.8175,1.8181,1.8222,1.824,1.8208,1.8207,1.8214,1.8258,1.8273,1.8278,1.834,1.8292,1.8295,1.8297,1.8299,1.8449,1.8451,0,0,0,0,0,0,1.8095,1.8105,1.8197,1.8201,1.8137,1.8179,1.8186,1.8208,1.824,1.8243,1.8216,1.8214,1.8267,1.8273,1.828,1.8345,1.8295,1.8299,1.8301,1.8447,1.8449,1.8451,0,0,0,0,0,0,1.8093,1.8104,1.8195,1.8153,1.8164,1.8183,1.8208,1.821,1.8226,1.8246,1.8248,1.8228,1.8266,1.8274,1.8321,1.8347,1.8301,1.8304,1.8445,1.8448,1.845,1.8478,0,0,0,0,0,0,1.8089,1.8103,1.8125,1.8154,1.8166,1.8237,1.821,1.8212,1.8232,1.823,1.8258,1.8261,1.8266,1.8316,1.8325,1.8351,1.8307,1.8443,1.8446,1.8449,1.8474,1.8481,1.8486,0,0,0,0,0,1.8085,1.8129,1.8126,1.8137,1.8194,1.8238,1.8245,1.8251,1.8235,1.8256,1.8269,1.826,1.8343,1.8321,1.8331,1.8359,1.8441,1.8445,1.8449,1.8472,1.848,1.8486,0,0,0,0,0,0,1.8101,1.8133,1.813,1.8185,1.8209,1.8236,1.8263,1.8259,1.8288,1.8284,1.8289,1.8295,1.8343,1.8356,1.833,1.8413,1.8389,1.8396,1.8403,1.8411,1.8417,1.8412,1.831,0,0,0,0,0,1.8111,1.8146,1.8171,1.8217,1.823,1.8245,1.8264,1.8267,1.8291,1.8301,1.8317,1.834,1.8372,1.8392,1.8422,1.8477,1.8482,1.8501,1.8507,1.8511,1.8516,1.8546,1.8554,1.8464,1.8464,1.8464,0,0,1.8132,1.8154,1.8175,1.8221,1.824,1.8275,1.8253,1.829,1.8315,1.8306,1.8352,1.8365,1.8391,1.8442,1.8465,1.8454,1.8543,1.8516,1.852,1.8523,1.8551,1.8559,1.8567,1.8467,1.8467,1.8466,0,0,1.8188,1.8208,1.8249,1.8269,1.8299,1.8309,1.8318,1.8347,1.8355,1.8402,1.8395,1.8425,1.8479,1.8498,1.8514,1.8578,1.8571,1.8588,1.8618,1.8647,1.8654,1.866,1.8683,1.8691,1.8593,1.8593,1.8593,0,1.8209,1.8262,1.827,1.8308,1.8328,1.8323,1.8364,1.8383,1.842,1.8433,1.8421,1.8489,1.8506,1.8561,1.8577,1.8591,1.8601,1.8584,1.8653,1.8659,1.8665,1.8686,1.8695,1.8595,1.8594,1.8594,1.8594,0,1.8287,1.8324,1.8353,1.8392,1.8415,1.8454,1.8466,1.8489,1.849,1.8501,1.8548,1.8568,1.8602,1.8616,1.8616,1.8672,1.8664,1.8652,1.8628,1.8675,1.8695,1.8704,1.8597,1.8597,1.8596,1.8596,0,0,1.8354,1.8397,1.8407,1.8425,1.8458,1.8486,1.8524,1.8559,1.8578,1.8604,1.8636,1.8683,1.8672,1.8691,1.8694,1.8719,1.8768,1.8704,1.8705,1.8715,1.883,1.8838,1.8847,1.8764,1.8766,1.8767,1.8827,0,1.8412,1.8482,1.849,1.8552,1.8586,1.8582,1.8615,1.8639,1.865,1.8679,1.8691,1.8723,1.8708,1.8719,1.8744,1.8757,1.8791,1.8753,1.8792,1.8794,1.8785,1.8858,1.8866,1.8922,1.8835,1.8836,1.8837,0,1.8489,1.852,1.8585,1.8614,1.8629,1.8659,1.8692,1.872,1.8746,1.8752,1.8774,1.8774,1.8813,1.8788,1.8841,1.8815,1.8832,1.884,1.8843,1.8846,1.8818,1.8862,1.894,1.8948,1.885,1.8849,1.8848,0,1.853,1.8588,1.8634,1.8649,1.8684,1.8706,1.8721,1.8746,1.8766,1.8795,1.8808,1.884,1.8857,1.8881,1.8889,1.887,1.8941,1.8917,1.8947,1.8946,1.8961,1.896,1.9042,1.8973,1.8973,1.8973,1.8972,0,1.8594,1.8634,1.8653,1.8682,1.8727,1.8735,1.8779,1.8793,1.8815,1.8845,1.8844,1.8872,1.8881,1.891,1.8916,1.8959,1.8967,1.8972,1.8973,1.8972,1.8971,1.8982,1.8978,1.8975,1.8974,1.8974,1.8974,0,1.8648,1.8662,1.8713,1.8743,1.8751,1.8782,1.8807,1.8834,1.8845,1.8884,1.8893,1.891,1.8945,1.8956,1.8997,1.9001,1.9051,1.9048,1.9042,1.9042,1.9071,1.9068,1.9162,1.9175,1.9098,1.9099,1.91,0,1.8687,1.8718,1.8752,1.8773,1.879,1.8823,1.8845,1.8855,1.8877,1.8909,1.8932,1.8967,1.8995,1.9051,1.9066,1.9097,1.9095,1.9126,1.91,1.9098,1.9095,1.9093,1.9096,1.9131,1.9132,1.9132,1.9133,0,1.8756,1.8762,1.8794,1.8828,1.8855,1.8882,1.8908,1.8925,1.8938,1.8963,1.8999,1.9022,1.9065,1.9099,1.9131,1.9145,1.9141,1.9142,1.915,1.9149,1.9144,1.9146,1.9055,1.9139,1.9138,1.9138,1.9138,1.9137,1.8803,1.883,1.8859,1.8894,1.8916,1.894,1.8967,1.8983,1.9014,1.9051,1.9054,1.9093,1.9118,1.9161,1.9177,1.9207,1.9198,1.921,1.9213,1.9216,1.9218,1.914,1.9213,1.9213,1.9213,1.9213,1.9213,0,1.8871,1.8889,1.8922,1.896,1.8988,1.8984,1.9012,1.9035,1.9071,1.9095,1.9124,1.9165,1.9198,1.9217,1.925,1.927,1.9269,1.9278,1.9276,1.928,1.9225,1.9214,1.9279,1.9279,1.9279,1.9279,1.9279,1.9279,1.8909,1.8956,1.8965,1.9022,1.9039,1.9079,1.9096,1.9118,1.9138,1.9185,1.9214,1.9226,1.9248,1.9283,1.9313,1.9317,1.9329,1.9339,1.9342,1.929,1.9283,1.9277,1.9267,1.9342,1.9342,1.9395,1.9395,1.9396]}]]